owner,sensor,date,latitude,longitude,vertical_datum,wind_speed,wind_to_direction,wind_speed_of_gust,qcFlag 
TCOON,ioos:station:TCOON:146:1,2014-10-01T00:30:00Z,28.1324,-97.0345,0.0,5.2,98.0,6.0,'1111122,1111122,1111122' 
TCOON,ioos:station:TCOON:146:1,2014-10-01T01:30:00Z,28.1324,-97.0345,0.0,5.2,96.0,6.6,'1111122,1111122,1111122' 
TCOON,ioos:station:TCOON:146:1,2014-10-01T02:30:00Z,28.1324,-97.0345,0.0,3.9,110.0,5.0,'1111122,1111122,1111122' 
TCOON,ioos:station:TCOON:146:1,2014-10-01T03:30:00Z,28.1324,-97.0345,0.0,2.9,112.0,3.8,'1111122,1111122,1111122' 
TCOON,ioos:station:TCOON:146:1,2014-10-01T04:30:00Z,28.1324,-97.0345,0.0,3.0,132.0,3.6,'1111122,1111122,1111122' 
TCOON,ioos:station:TCOON:146:1,2014-10-01T05:30:00Z,28.1324,-97.0345,0.0,3.4,145.0,4.3,'1111122,1111122,1111122' 
TCOON,ioos:station:TCOON:146:1,2014-10-01T07:00:00Z,28.1324,-97.0345,0.0,2.7,156.0,3.2,'1111122,1111122,1111122' 
TCOON,ioos:station:TCOON:146:1,2014-10-01T07:30:00Z,28.1324,-97.0345,0.0,2.6,151.0,3.3,'1111122,1111122,1111122' 
TCOON,ioos:station:TCOON:146:1,2014-10-01T08:30:00Z,28.1324,-97.0345,0.0,2.8,153.0,3.6,'1111122,1111122,1111122' 
TCOON,ioos:station:TCOON:146:1,2014-10-01T10:30:00Z,28.1324,-97.0345,0.0,2.2,176.0,2.8,'1111122,1111122,1111122' 
TCOON,ioos:station:TCOON:146:1,2014-10-01T11:30:00Z,28.1324,-97.0345,0.0,2.7,193.0,3.4,'1111122,1111122,1111122' 
TCOON,ioos:station:TCOON:146:1,2014-10-01T12:30:00Z,28.1324,-97.0345,0.0,2.3,220.0,2.9,'1111122,1111122,1111122' 
TCOON,ioos:station:TCOON:146:1,2014-10-01T14:30:00Z,28.1324,-97.0345,0.0,3.2,210.0,3.6,'1111122,1111122,1111122' 
TCOON,ioos:station:TCOON:146:1,2014-10-01T15:30:00Z,28.1324,-97.0345,0.0,3.1,212.0,3.9,'1111122,1111122,1111122' 
TCOON,ioos:station:TCOON:146:1,2014-10-01T16:30:00Z,28.1324,-97.0345,0.0,3.9,146.0,5.4,'1111122,1111122,1111122' 
TCOON,ioos:station:TCOON:146:1,2014-10-01T18:30:00Z,28.1324,-97.0345,0.0,6.7,141.0,7.5,'1111122,1111122,1111122' 
TCOON,ioos:station:TCOON:146:1,2014-10-01T20:30:00Z,28.1324,-97.0345,0.0,5.3,139.0,6.1,'1111122,1111122,1111122' 
TCOON,ioos:station:TCOON:146:1,2014-10-01T21:30:00Z,28.1324,-97.0345,0.0,6.3,140.0,7.4,'1111122,1111122,1111122' 
TCOON,ioos:station:TCOON:146:1,2014-10-01T22:30:00Z,28.1324,-97.0345,0.0,5.6,131.0,7.7,'1111122,1111122,1111122' 
TCOON,ioos:station:TCOON:146:1,2014-10-01T23:30:00Z,28.1324,-97.0345,0.0,6.9,132.0,8.0,'1111122,1111122,1111122' 
TCOON,ioos:station:TCOON:146:1,2014-10-02T03:00:00Z,28.1324,-97.0345,0.0,7.1,146.0,8.7,'1111122,1111122,1111122' 
TCOON,ioos:station:TCOON:146:1,2014-10-02T03:30:00Z,28.1324,-97.0345,0.0,6.6,149.0,7.9,'1111122,1111122,1111122' 
TCOON,ioos:station:TCOON:146:1,2014-10-02T04:30:00Z,28.1324,-97.0345,0.0,7.6,154.0,9.1,'1111122,1111122,1111122' 
TCOON,ioos:station:TCOON:146:1,2014-10-02T05:30:00Z,28.1324,-97.0345,0.0,6.6,161.0,8.3,'1111122,1111122,1111122' 
TCOON,ioos:station:TCOON:146:1,2014-10-02T06:30:00Z,28.1324,-97.0345,0.0,6.2,161.0,8.2,'1111122,1111122,1111122' 
TCOON,ioos:station:TCOON:146:1,2014-10-02T08:30:00Z,28.1324,-97.0345,0.0,6.7,163.0,8.3,'1111122,1111122,1111122' 
TCOON,ioos:station:TCOON:146:1,2014-10-02T09:30:00Z,28.1324,-97.0345,0.0,6.0,159.0,7.4,'1111122,1111122,1111122' 
TCOON,ioos:station:TCOON:146:1,2014-10-02T12:30:00Z,28.1324,-97.0345,0.0,5.1,166.0,6.4,'1111122,1111122,1111122' 
TCOON,ioos:station:TCOON:146:1,2014-10-02T14:30:00Z,28.1324,-97.0345,0.0,6.1,156.0,8.3,'1111122,1111122,1111122' 
TCOON,ioos:station:TCOON:146:1,2014-10-02T15:30:00Z,28.1324,-97.0345,0.0,7.4,155.0,9.2,'1111122,1111122,1111122' 
TCOON,ioos:station:TCOON:146:1,2014-10-02T17:30:00Z,28.1324,-97.0345,0.0,7.4,153.0,9.8,'1111122,1111122,1111122' 
TCOON,ioos:station:TCOON:146:1,2014-10-02T18:30:00Z,28.1324,-97.0345,0.0,7.6,152.0,9.9,'1111122,1111122,1111122' 
TCOON,ioos:station:TCOON:146:1,2014-10-02T19:30:00Z,28.1324,-97.0345,0.0,8.8,151.0,10.3,'1111122,1111122,1111122' 
TCOON,ioos:station:TCOON:146:1,2014-10-02T20:30:00Z,28.1324,-97.0345,0.0,7.7,150.0,9.5,'1111122,1111122,1111122' 
TCOON,ioos:station:TCOON:146:1,2014-10-02T21:30:00Z,28.1324,-97.0345,0.0,8.2,150.0,9.5,'1111122,1111122,1111122' 
TCOON,ioos:station:TCOON:146:1,2014-10-02T23:30:00Z,28.1324,-97.0345,0.0,8.0,153.0,9.8,'1111122,1111122,1111122' 
TCOON,ioos:station:TCOON:146:1,2014-10-03T02:30:00Z,28.1324,-97.0345,0.0,8.7,160.0,10.9,'1111122,1111122,1111122' 
TCOON,ioos:station:TCOON:146:1,2014-10-03T04:30:00Z,28.1324,-97.0345,0.0,7.7,173.0,10.2,'1111122,1111122,1111122' 
TCOON,ioos:station:TCOON:146:1,2014-10-03T05:30:00Z,28.1324,-97.0345,0.0,5.2,181.0,6.8,'1111122,1111122,1111122' 
TCOON,ioos:station:TCOON:146:1,2014-10-03T06:30:00Z,28.1324,-97.0345,0.0,5.4,174.0,6.7,'1111122,1111122,1111122' 
TCOON,ioos:station:TCOON:146:1,2014-10-03T07:30:00Z,28.1324,-97.0345,0.0,4.0,188.0,5.6,'1111122,1111122,1111122' 
TCOON,ioos:station:TCOON:146:1,2014-10-03T08:30:00Z,28.1324,-97.0345,0.0,3.6,183.0,5.5,'1111122,1111122,1111122' 
TCOON,ioos:station:TCOON:146:1,2014-10-03T09:30:00Z,28.1324,-97.0345,0.0,9.4,10.0,12.5,'1111122,1111122,1111122' 
TCOON,ioos:station:TCOON:146:1,2014-10-03T10:30:00Z,28.1324,-97.0345,0.0,5.7,39.0,8.2,'1111122,1111122,1111122' 
TCOON,ioos:station:TCOON:146:1,2014-10-03T11:30:00Z,28.1324,-97.0345,0.0,2.5,90.0,3.6,'1111122,1111122,1111122' 
TCOON,ioos:station:TCOON:146:1,2014-10-03T12:30:00Z,28.1324,-97.0345,0.0,6.1,12.0,8.3,'1111122,1111122,1111122' 
TCOON,ioos:station:TCOON:146:1,2014-10-03T14:30:00Z,28.1324,-97.0345,0.0,7.7,9.0,9.8,'1111122,1111122,1111122' 
TCOON,ioos:station:TCOON:146:1,2014-10-03T15:30:00Z,28.1324,-97.0345,0.0,9.3,23.0,11.9,'1111122,1111122,1111122' 
TCOON,ioos:station:TCOON:146:1,2014-10-03T16:30:00Z,28.1324,-97.0345,0.0,9.5,28.0,11.5,'1111122,1111122,1111122' 
TCOON,ioos:station:TCOON:146:1,2014-10-03T17:30:00Z,28.1324,-97.0345,0.0,6.9,36.0,8.7,'1111122,1111122,1111122' 
TCOON,ioos:station:TCOON:146:1,2014-10-03T18:30:00Z,28.1324,-97.0345,0.0,7.3,32.0,9.5,'1111122,1111122,1111122' 
TCOON,ioos:station:TCOON:146:1,2014-10-03T20:30:00Z,28.1324,-97.0345,0.0,5.7,20.0,8.1,'1111122,1111122,1111122' 
TCOON,ioos:station:TCOON:146:1,2014-10-03T21:30:00Z,28.1324,-97.0345,0.0,6.4,13.0,8.1,'1111122,1111122,1111122' 
TCOON,ioos:station:TCOON:146:1,2014-10-03T22:30:00Z,28.1324,-97.0345,0.0,5.3,11.0,6.8,'1111122,1111122,1111122' 
TCOON,ioos:station:TCOON:146:1,2014-10-03T23:30:00Z,28.1324,-97.0345,0.0,5.2,39.0,6.2,'1111122,1111122,1111122' 
TCOON,ioos:station:TCOON:146:1,2014-10-04T00:30:00Z,28.1324,-97.0345,0.0,4.2,34.0,5.0,'1111122,1111122,1111122' 
TCOON,ioos:station:TCOON:146:1,2014-10-04T01:30:00Z,28.1324,-97.0345,0.0,4.5,34.0,5.6,'1111122,1111122,1111122' 
TCOON,ioos:station:TCOON:146:1,2014-10-04T02:30:00Z,28.1324,-97.0345,0.0,4.3,35.0,5.2,'1111122,1111122,1111122' 
TCOON,ioos:station:TCOON:146:1,2014-10-04T03:30:00Z,28.1324,-97.0345,0.0,4.7,32.0,5.5,'1111122,1111122,1111122' 
TCOON,ioos:station:TCOON:146:1,2014-10-04T04:30:00Z,28.1324,-97.0345,0.0,4.8,26.0,5.8,'1111122,1111122,1111122' 
TCOON,ioos:station:TCOON:146:1,2014-10-04T06:00:00Z,28.1324,-97.0345,0.0,5.5,28.0,6.6,'1111122,1111122,1111122' 
TCOON,ioos:station:TCOON:146:1,2014-10-04T06:30:00Z,28.1324,-97.0345,0.0,5.9,26.0,7.2,'1111122,1111122,1111122' 
TCOON,ioos:station:TCOON:146:1,2014-10-04T07:30:00Z,28.1324,-97.0345,0.0,5.1,32.0,6.1,'1111122,1111122,1111122' 
TCOON,ioos:station:TCOON:146:1,2014-10-04T08:30:00Z,28.1324,-97.0345,0.0,4.4,32.0,5.6,'1111122,1111122,1111122' 
TCOON,ioos:station:TCOON:146:1,2014-10-04T09:30:00Z,28.1324,-97.0345,0.0,5.2,25.0,6.1,'1111122,1111122,1111122' 
TCOON,ioos:station:TCOON:146:1,2014-10-04T10:30:00Z,28.1324,-97.0345,0.0,5.8,21.0,7.1,'1111122,1111122,1111122' 
TCOON,ioos:station:TCOON:146:1,2014-10-04T12:30:00Z,28.1324,-97.0345,0.0,5.6,22.0,6.7,'1111122,1111122,1111122' 
TCOON,ioos:station:TCOON:146:1,2014-10-04T14:30:00Z,28.1324,-97.0345,0.0,7.2,20.0,8.4,'1111122,1111122,1111122' 
TCOON,ioos:station:TCOON:146:1,2014-10-04T17:30:00Z,28.1324,-97.0345,0.0,6.8,58.0,8.8,'1111122,1111122,1111122' 
TCOON,ioos:station:TCOON:146:1,2014-10-04T18:30:00Z,28.1324,-97.0345,0.0,6.9,70.0,8.5,'1111122,1111122,1111122' 
TCOON,ioos:station:TCOON:146:1,2014-10-04T19:30:00Z,28.1324,-97.0345,0.0,5.8,74.0,8.2,'1111122,1111122,1111122' 
TCOON,ioos:station:TCOON:146:1,2014-10-04T20:30:00Z,28.1324,-97.0345,0.0,5.9,83.0,8.3,'1111122,1111122,1111122' 
TCOON,ioos:station:TCOON:146:1,2014-10-04T21:30:00Z,28.1324,-97.0345,0.0,6.6,85.0,8.2,'1111122,1111122,1111122' 
TCOON,ioos:station:TCOON:146:1,2014-10-04T22:30:00Z,28.1324,-97.0345,0.0,6.9,85.0,8.6,'1111122,1111122,1111122' 
TCOON,ioos:station:TCOON:146:1,2014-10-04T23:30:00Z,28.1324,-97.0345,0.0,6.1,76.0,7.6,'1111122,1111122,1111122' 
TCOON,ioos:station:TCOON:146:1,2014-10-05T00:30:00Z,28.1324,-97.0345,0.0,6.0,80.0,7.2,'1111122,1111122,1111122' 
TCOON,ioos:station:TCOON:146:1,2014-10-05T01:30:00Z,28.1324,-97.0345,0.0,6.3,102.0,7.9,'1111122,1111122,1111122' 
TCOON,ioos:station:TCOON:146:1,2014-10-05T02:30:00Z,28.1324,-97.0345,0.0,5.9,104.0,6.8,'1111122,1111122,1111122' 
TCOON,ioos:station:TCOON:146:1,2014-10-05T03:30:00Z,28.1324,-97.0345,0.0,5.3,106.0,6.4,'1111122,1111122,1111122' 
TCOON,ioos:station:TCOON:146:1,2014-10-05T04:30:00Z,28.1324,-97.0345,0.0,4.4,114.0,5.6,'1111122,1111122,1111122' 
TCOON,ioos:station:TCOON:146:1,2014-10-05T05:30:00Z,28.1324,-97.0345,0.0,4.2,120.0,5.3,'1111122,1111122,1111122' 
TCOON,ioos:station:TCOON:146:1,2014-10-05T07:00:00Z,28.1324,-97.0345,0.0,5.7,136.0,6.5,'1111122,1111122,1111122' 
TCOON,ioos:station:TCOON:146:1,2014-10-05T07:30:00Z,28.1324,-97.0345,0.0,6.1,145.0,7.0,'1111122,1111122,1111122' 
TCOON,ioos:station:TCOON:146:1,2014-10-05T09:30:00Z,28.1324,-97.0345,0.0,7.0,160.0,8.5,'1111122,1111122,1111122' 
TCOON,ioos:station:TCOON:146:1,2014-10-05T11:30:00Z,28.1324,-97.0345,0.0,5.4,152.0,6.7,'1111122,1111122,1111122' 
TCOON,ioos:station:TCOON:146:1,2014-10-05T13:30:00Z,28.1324,-97.0345,0.0,4.4,142.0,5.5,'1111122,1111122,1111122' 
TCOON,ioos:station:TCOON:146:1,2014-10-05T14:30:00Z,28.1324,-97.0345,0.0,5.5,141.0,7.0,'1111122,1111122,1111122' 
TCOON,ioos:station:TCOON:146:1,2014-10-05T16:30:00Z,28.1324,-97.0345,0.0,5.3,143.0,6.5,'1111122,1111122,1111122' 
TCOON,ioos:station:TCOON:146:1,2014-10-05T17:30:00Z,28.1324,-97.0345,0.0,5.2,139.0,6.4,'1111122,1111122,1111122' 
TCOON,ioos:station:TCOON:146:1,2014-10-05T18:30:00Z,28.1324,-97.0345,0.0,5.5,135.0,6.8,'1111122,1111122,1111122' 
TCOON,ioos:station:TCOON:146:1,2014-10-05T19:30:00Z,28.1324,-97.0345,0.0,6.4,136.0,7.7,'1111122,1111122,1111122' 
TCOON,ioos:station:TCOON:146:1,2014-10-05T20:30:00Z,28.1324,-97.0345,0.0,7.1,135.0,8.8,'1111122,1111122,1111122' 
TCOON,ioos:station:TCOON:146:1,2014-10-05T22:30:00Z,28.1324,-97.0345,0.0,7.0,128.0,9.0,'1111122,1111122,1111122' 
TCOON,ioos:station:TCOON:146:1,2014-10-05T23:30:00Z,28.1324,-97.0345,0.0,6.0,126.0,7.2,'1111122,1111122,1111122' 
TCOON,ioos:station:TCOON:146:1,2014-10-06T00:30:00Z,28.1324,-97.0345,0.0,6.2,120.0,7.6,'1111122,1111122,1111122' 
TCOON,ioos:station:TCOON:146:1,2014-10-06T01:30:00Z,28.1324,-97.0345,0.0,7.2,127.0,8.8,'1111122,1111122,1111122' 
TCOON,ioos:station:TCOON:146:1,2014-10-06T02:30:00Z,28.1324,-97.0345,0.0,6.8,125.0,8.5,'1111122,1111122,1111122' 
TCOON,ioos:station:TCOON:146:1,2014-10-06T04:30:00Z,28.1324,-97.0345,0.0,9.6,144.0,11.5,'1111122,1111122,1111122' 
TCOON,ioos:station:TCOON:146:1,2014-10-06T05:30:00Z,28.1324,-97.0345,0.0,8.9,148.0,10.5,'1111122,1111122,1111122' 
TCOON,ioos:station:TCOON:146:1,2014-10-06T06:30:00Z,28.1324,-97.0345,0.0,7.8,156.0,10.0,'1111122,1111122,1111122' 
TCOON,ioos:station:TCOON:146:1,2014-10-06T07:30:00Z,28.1324,-97.0345,0.0,6.7,157.0,8.1,'1111122,1111122,1111122' 
TCOON,ioos:station:TCOON:146:1,2014-10-06T08:30:00Z,28.1324,-97.0345,0.0,3.9,170.0,5.0,'1111122,1111122,1111122' 
TCOON,ioos:station:TCOON:146:1,2014-10-06T10:30:00Z,28.1324,-97.0345,0.0,2.5,166.0,3.6,'1111122,1111122,1111122' 
TCOON,ioos:station:TCOON:146:1,2014-10-06T12:30:00Z,28.1324,-97.0345,0.0,2.5,153.0,2.8,'1111122,1111122,1111122' 
TCOON,ioos:station:TCOON:146:1,2014-10-06T13:30:00Z,28.1324,-97.0345,0.0,3.3,150.0,3.9,'1111122,1111122,1111122' 
TCOON,ioos:station:TCOON:146:1,2014-10-06T14:30:00Z,28.1324,-97.0345,0.0,4.6,165.0,6.3,'1111122,1111122,1111122' 
TCOON,ioos:station:TCOON:146:1,2014-10-06T16:30:00Z,28.1324,-97.0345,0.0,1.4,43.0,2.1,'1111122,1111122,1111122' 
TCOON,ioos:station:TCOON:146:1,2014-10-06T18:30:00Z,28.1324,-97.0345,0.0,3.6,133.0,4.7,'1111122,1111122,1111122' 
TCOON,ioos:station:TCOON:146:1,2014-10-06T20:30:00Z,28.1324,-97.0345,0.0,5.5,141.0,6.4,'1111122,1111122,1111122' 
TCOON,ioos:station:TCOON:146:1,2014-10-07T00:30:00Z,28.1324,-97.0345,0.0,8.9,93.0,10.6,'1111122,1111122,1111122' 
TCOON,ioos:station:TCOON:146:1,2014-10-07T03:30:00Z,28.1324,-97.0345,0.0,5.8,130.0,7.2,'1111122,1111122,1111122' 
TCOON,ioos:station:TCOON:146:1,2014-10-07T04:30:00Z,28.1324,-97.0345,0.0,5.6,137.0,7.0,'1111122,1111122,1111122' 
TCOON,ioos:station:TCOON:146:1,2014-10-07T05:30:00Z,28.1324,-97.0345,0.0,5.2,146.0,6.1,'1111122,1111122,1111122' 
TCOON,ioos:station:TCOON:146:1,2014-10-07T06:30:00Z,28.1324,-97.0345,0.0,5.9,145.0,7.3,'1111122,1111122,1111122' 
TCOON,ioos:station:TCOON:146:1,2014-10-07T07:30:00Z,28.1324,-97.0345,0.0,4.7,168.0,5.9,'1111122,1111122,1111122' 
TCOON,ioos:station:TCOON:146:1,2014-10-07T08:30:00Z,28.1324,-97.0345,0.0,3.3,171.0,4.4,'1111122,1111122,1111122' 
TCOON,ioos:station:TCOON:146:1,2014-10-07T09:30:00Z,28.1324,-97.0345,0.0,2.1,168.0,2.5,'1111122,1111122,1111122' 
TCOON,ioos:station:TCOON:146:1,2014-10-07T10:30:00Z,28.1324,-97.0345,0.0,2.8,179.0,3.5,'1111122,1111122,1111122' 
TCOON,ioos:station:TCOON:146:1,2014-10-07T12:30:00Z,28.1324,-97.0345,0.0,1.7,209.0,2.4,'1111122,1111122,1111122' 
TCOON,ioos:station:TCOON:146:1,2014-10-07T14:30:00Z,28.1324,-97.0345,0.0,0.9,11.0,1.4,'1111122,1111122,1111122' 
TCOON,ioos:station:TCOON:146:1,2014-10-07T15:30:00Z,28.1324,-97.0345,0.0,0.6,288.0,1.0,'1111122,1111122,1111122' 
TCOON,ioos:station:TCOON:146:1,2014-10-07T16:30:00Z,28.1324,-97.0345,0.0,3.3,130.0,4.2,'1111122,1111122,1111122' 
TCOON,ioos:station:TCOON:146:1,2014-10-07T17:30:00Z,28.1324,-97.0345,0.0,3.5,130.0,4.2,'1111122,1111122,1111122' 
TCOON,ioos:station:TCOON:146:1,2014-10-07T18:30:00Z,28.1324,-97.0345,0.0,3.4,127.0,4.4,'1111122,1111122,1111122' 
TCOON,ioos:station:TCOON:146:1,2014-10-07T19:30:00Z,28.1324,-97.0345,0.0,4.6,138.0,5.4,'1111122,1111122,1111122' 
TCOON,ioos:station:TCOON:146:1,2014-10-07T22:30:00Z,28.1324,-97.0345,0.0,6.1,126.0,7.3,'1111122,1111122,1111122' 
TCOON,ioos:station:TCOON:146:1,2014-10-08T00:30:00Z,28.1324,-97.0345,0.0,6.3,128.0,7.3,'1111122,1111122,1111122' 
TCOON,ioos:station:TCOON:146:1,2014-10-08T01:30:00Z,28.1324,-97.0345,0.0,6.5,128.0,7.9,'1111122,1111122,1111122' 
TCOON,ioos:station:TCOON:146:1,2014-10-08T02:30:00Z,28.1324,-97.0345,0.0,6.9,132.0,8.2,'1111122,1111122,1111122' 
TCOON,ioos:station:TCOON:146:1,2014-10-08T03:30:00Z,28.1324,-97.0345,0.0,7.1,136.0,8.4,'1111122,1111122,1111122' 
TCOON,ioos:station:TCOON:146:1,2014-10-08T04:30:00Z,28.1324,-97.0345,0.0,7.4,134.0,8.8,'1111122,1111122,1111122' 
TCOON,ioos:station:TCOON:146:1,2014-10-08T05:30:00Z,28.1324,-97.0345,0.0,7.1,139.0,8.9,'1111122,1111122,1111122' 
TCOON,ioos:station:TCOON:146:1,2014-10-08T07:00:00Z,28.1324,-97.0345,0.0,6.7,147.0,8.0,'1111122,1111122,1111122' 
TCOON,ioos:station:TCOON:146:1,2014-10-08T07:30:00Z,28.1324,-97.0345,0.0,6.4,146.0,7.6,'1111122,1111122,1111122' 
TCOON,ioos:station:TCOON:146:1,2014-10-08T08:30:00Z,28.1324,-97.0345,0.0,5.6,152.0,6.7,'1111122,1111122,1111122' 
TCOON,ioos:station:TCOON:146:1,2014-10-08T09:30:00Z,28.1324,-97.0345,0.0,5.6,157.0,6.5,'1111122,1111122,1111122' 
TCOON,ioos:station:TCOON:146:1,2014-10-08T10:30:00Z,28.1324,-97.0345,0.0,4.5,159.0,5.7,'1111122,1111122,1111122' 
TCOON,ioos:station:TCOON:146:1,2014-10-08T12:30:00Z,28.1324,-97.0345,0.0,2.1,172.0,2.6,'1111122,1111122,1111122' 
TCOON,ioos:station:TCOON:146:1,2014-10-08T13:30:00Z,28.1324,-97.0345,0.0,2.2,164.0,4.0,'1111122,1111122,1111122' 
TCOON,ioos:station:TCOON:146:1,2014-10-08T14:30:00Z,28.1324,-97.0345,0.0,3.5,141.0,4.1,'1111122,1111122,1111122' 
TCOON,ioos:station:TCOON:146:1,2014-10-08T15:30:00Z,28.1324,-97.0345,0.0,4.2,144.0,5.2,'1111122,1111122,1111122' 
TCOON,ioos:station:TCOON:146:1,2014-10-08T16:30:00Z,28.1324,-97.0345,0.0,4.4,138.0,5.3,'1111122,1111122,1111122' 
TCOON,ioos:station:TCOON:146:1,2014-10-08T17:30:00Z,28.1324,-97.0345,0.0,4.9,141.0,5.8,'1111122,1111122,1111122' 
TCOON,ioos:station:TCOON:146:1,2014-10-08T18:30:00Z,28.1324,-97.0345,0.0,4.8,140.0,5.8,'1111122,1111122,1111122' 
TCOON,ioos:station:TCOON:146:1,2014-10-08T20:30:00Z,28.1324,-97.0345,0.0,6.0,132.0,7.4,'1111122,1111122,1111122' 
TCOON,ioos:station:TCOON:146:1,2014-10-08T22:30:00Z,28.1324,-97.0345,0.0,6.8,131.0,8.4,'1111122,1111122,1111122' 
TCOON,ioos:station:TCOON:146:1,2014-10-09T02:30:00Z,28.1324,-97.0345,0.0,6.2,138.0,7.8,'1111122,1111122,1111122' 
TCOON,ioos:station:TCOON:146:1,2014-10-09T03:30:00Z,28.1324,-97.0345,0.0,6.4,145.0,9.1,'1111122,1111122,1111122' 
TCOON,ioos:station:TCOON:146:1,2014-10-09T04:30:00Z,28.1324,-97.0345,0.0,7.5,151.0,10.8,'1111122,1111122,1111122' 
TCOON,ioos:station:TCOON:146:1,2014-10-09T05:30:00Z,28.1324,-97.0345,0.0,8.7,142.0,10.1,'1111122,1111122,1111122' 
TCOON,ioos:station:TCOON:146:1,2014-10-09T06:30:00Z,28.1324,-97.0345,0.0,8.9,146.0,10.5,'1111122,1111122,1111122' 
TCOON,ioos:station:TCOON:146:1,2014-10-09T10:30:00Z,28.1324,-97.0345,0.0,7.0,138.0,8.7,'1111122,1111122,1111122' 
TCOON,ioos:station:TCOON:146:1,2014-10-09T13:30:00Z,28.1324,-97.0345,0.0,4.8,162.0,6.5,'1111122,1111122,1111122' 
TCOON,ioos:station:TCOON:146:1,2014-10-09T14:30:00Z,28.1324,-97.0345,0.0,6.2,158.0,12.4,'1111122,1111122,1111122' 
TCOON,ioos:station:TCOON:146:1,2014-10-09T15:30:00Z,28.1324,-97.0345,0.0,7.4,148.0,8.8,'1111122,1111122,1111122' 
TCOON,ioos:station:TCOON:146:1,2014-10-09T16:30:00Z,28.1324,-97.0345,0.0,7.6,151.0,8.8,'1111122,1111122,1111122' 
TCOON,ioos:station:TCOON:146:1,2014-10-09T17:30:00Z,28.1324,-97.0345,0.0,7.1,148.0,8.9,'1111122,1111122,1111122' 
TCOON,ioos:station:TCOON:146:1,2014-10-09T18:30:00Z,28.1324,-97.0345,0.0,6.3,145.0,8.3,'1111122,1111122,1111122' 
TCOON,ioos:station:TCOON:146:1,2014-10-09T20:30:00Z,28.1324,-97.0345,0.0,6.9,140.0,8.1,'1111122,1111122,1111122' 
TCOON,ioos:station:TCOON:146:1,2014-10-09T21:30:00Z,28.1324,-97.0345,0.0,7.3,137.0,8.4,'1111122,1111122,1111122' 
TCOON,ioos:station:TCOON:146:1,2014-10-09T23:00:00Z,28.1324,-97.0345,0.0,7.2,135.0,8.8,'1111122,1111122,1111122' 
TCOON,ioos:station:TCOON:146:1,2014-10-09T23:30:00Z,28.1324,-97.0345,0.0,7.5,135.0,8.9,'1111122,1111122,1111122' 
TCOON,ioos:station:TCOON:146:1,2014-10-10T00:30:00Z,28.1324,-97.0345,0.0,7.5,136.0,8.9,'1111122,1111122,1111122' 
TCOON,ioos:station:TCOON:146:1,2014-10-10T03:00:00Z,28.1324,-97.0345,0.0,8.3,146.0,10.0,'1111122,1111122,1111122' 
TCOON,ioos:station:TCOON:146:1,2014-10-10T03:30:00Z,28.1324,-97.0345,0.0,7.3,142.0,8.5,'1111122,1111122,1111122' 
TCOON,ioos:station:TCOON:146:1,2014-10-10T04:30:00Z,28.1324,-97.0345,0.0,7.9,145.0,9.3,'1111122,1111122,1111122' 
TCOON,ioos:station:TCOON:146:1,2014-10-10T05:30:00Z,28.1324,-97.0345,0.0,7.8,149.0,9.6,'1111122,1111122,1111122' 
TCOON,ioos:station:TCOON:146:1,2014-10-10T06:30:00Z,28.1324,-97.0345,0.0,8.2,153.0,9.7,'1111122,1111122,1111122' 
TCOON,ioos:station:TCOON:146:1,2014-10-10T07:30:00Z,28.1324,-97.0345,0.0,7.9,156.0,9.8,'1111122,1111122,1111122' 
TCOON,ioos:station:TCOON:146:1,2014-10-10T08:30:00Z,28.1324,-97.0345,0.0,8.2,161.0,10.4,'1111122,1111122,1111122' 
TCOON,ioos:station:TCOON:146:1,2014-10-10T09:30:00Z,28.1324,-97.0345,0.0,8.2,162.0,11.2,'1111122,1111122,1111122' 
TCOON,ioos:station:TCOON:146:1,2014-10-10T10:30:00Z,28.1324,-97.0345,0.0,6.5,172.0,8.7,'1111122,1111122,1111122' 
TCOON,ioos:station:TCOON:146:1,2014-10-10T11:30:00Z,28.1324,-97.0345,0.0,5.9,171.0,7.9,'1111122,1111122,1111122' 
TCOON,ioos:station:TCOON:146:1,2014-10-10T12:30:00Z,28.1324,-97.0345,0.0,6.3,173.0,7.9,'1111122,1111122,1111122' 
TCOON,ioos:station:TCOON:146:1,2014-10-10T13:30:00Z,28.1324,-97.0345,0.0,6.4,172.0,9.3,'1111122,1111122,1111122' 
TCOON,ioos:station:TCOON:146:1,2014-10-10T14:30:00Z,28.1324,-97.0345,0.0,6.1,169.0,11.0,'1111122,1111122,1111122' 
TCOON,ioos:station:TCOON:146:1,2014-10-10T15:30:00Z,28.1324,-97.0345,0.0,8.2,163.0,10.7,'1111122,1111122,1111122' 
TCOON,ioos:station:TCOON:146:1,2014-10-10T16:30:00Z,28.1324,-97.0345,0.0,9.0,158.0,11.2,'1111122,1111122,1111122' 
TCOON,ioos:station:TCOON:146:1,2014-10-10T17:30:00Z,28.1324,-97.0345,0.0,8.9,158.0,11.0,'1111122,1111122,1111122' 
TCOON,ioos:station:TCOON:146:1,2014-10-10T19:30:00Z,28.1324,-97.0345,0.0,8.0,155.0,9.9,'1111122,1111122,1111122' 
TCOON,ioos:station:TCOON:146:1,2014-10-10T21:30:00Z,28.1324,-97.0345,0.0,8.9,149.0,11.4,'1111122,1111122,1111122' 
TCOON,ioos:station:TCOON:146:1,2014-10-10T22:30:00Z,28.1324,-97.0345,0.0,8.9,146.0,10.7,'1111122,1111122,1111122' 
TCOON,ioos:station:TCOON:146:1,2014-10-11T02:00:00Z,28.1324,-97.0345,0.0,9.0,143.0,10.8,'1111122,1111122,1111122' 
TCOON,ioos:station:TCOON:146:1,2014-10-11T02:30:00Z,28.1324,-97.0345,0.0,8.9,144.0,10.4,'1111122,1111122,1111122' 
TCOON,ioos:station:TCOON:146:1,2014-10-11T03:30:00Z,28.1324,-97.0345,0.0,8.3,143.0,10.4,'1111122,1111122,1111122' 
TCOON,ioos:station:TCOON:146:1,2014-10-11T04:30:00Z,28.1324,-97.0345,0.0,8.9,143.0,10.5,'1111122,1111122,1111122' 
TCOON,ioos:station:TCOON:146:1,2014-10-11T05:30:00Z,28.1324,-97.0345,0.0,9.5,149.0,11.3,'1111122,1111122,1111122' 
TCOON,ioos:station:TCOON:146:1,2014-10-11T06:30:00Z,28.1324,-97.0345,0.0,8.5,155.0,10.2,'1111122,1111122,1111122' 
TCOON,ioos:station:TCOON:146:1,2014-10-11T08:00:00Z,28.1324,-97.0345,0.0,8.2,156.0,9.8,'1111122,1111122,1111122' 
TCOON,ioos:station:TCOON:146:1,2014-10-11T08:30:00Z,28.1324,-97.0345,0.0,8.3,153.0,9.8,'1111122,1111122,1111122' 
TCOON,ioos:station:TCOON:146:1,2014-10-11T09:30:00Z,28.1324,-97.0345,0.0,8.7,150.0,10.2,'1111122,1111122,1111122' 
TCOON,ioos:station:TCOON:146:1,2014-10-11T10:30:00Z,28.1324,-97.0345,0.0,7.3,156.0,8.7,'1111122,1111122,1111122' 
TCOON,ioos:station:TCOON:146:1,2014-10-11T12:30:00Z,28.1324,-97.0345,0.0,5.0,161.0,6.6,'1111122,1111122,1111122' 
TCOON,ioos:station:TCOON:146:1,2014-10-11T14:30:00Z,28.1324,-97.0345,0.0,4.5,140.0,5.5,'1111122,1111122,1111122' 
TCOON,ioos:station:TCOON:146:1,2014-10-11T16:30:00Z,28.1324,-97.0345,0.0,3.0,338.0,4.2,'1111122,1111122,1111122' 
TCOON,ioos:station:TCOON:146:1,2014-10-11T17:30:00Z,28.1324,-97.0345,0.0,1.9,6.0,4.2,'1111122,1111122,1111122' 
TCOON,ioos:station:TCOON:146:1,2014-10-11T18:30:00Z,28.1324,-97.0345,0.0,5.1,214.0,8.0,'1111122,1111122,1111122' 
TCOON,ioos:station:TCOON:146:1,2014-10-11T19:30:00Z,28.1324,-97.0345,0.0,0.9,86.0,2.0,'1111122,1111122,1111122' 
TCOON,ioos:station:TCOON:146:1,2014-10-11T20:30:00Z,28.1324,-97.0345,0.0,4.3,341.0,5.7,'1111122,1111122,1111122' 
TCOON,ioos:station:TCOON:146:1,2014-10-11T21:30:00Z,28.1324,-97.0345,0.0,5.0,26.0,6.4,'1111122,1111122,1111122' 
TCOON,ioos:station:TCOON:146:1,2014-10-12T00:30:00Z,28.1324,-97.0345,0.0,3.3,88.0,4.0,'1111122,1111122,1111122' 
TCOON,ioos:station:TCOON:146:1,2014-10-12T01:30:00Z,28.1324,-97.0345,0.0,3.9,43.0,4.8,'1111122,1111122,1111122' 
TCOON,ioos:station:TCOON:146:1,2014-10-12T02:30:00Z,28.1324,-97.0345,0.0,8.3,16.0,10.0,'1111122,1111122,1111122' 
TCOON,ioos:station:TCOON:146:1,2014-10-12T03:30:00Z,28.1324,-97.0345,0.0,8.3,21.0,10.3,'1111122,1111122,1111122' 
TCOON,ioos:station:TCOON:146:1,2014-10-12T04:30:00Z,28.1324,-97.0345,0.0,8.9,17.0,10.6,'1111122,1111122,1111122' 
TCOON,ioos:station:TCOON:146:1,2014-10-12T05:30:00Z,28.1324,-97.0345,0.0,8.6,19.0,10.3,'1111122,1111122,1111122' 
TCOON,ioos:station:TCOON:146:1,2014-10-12T07:00:00Z,28.1324,-97.0345,0.0,6.7,22.0,8.4,'1111122,1111122,1111122' 
TCOON,ioos:station:TCOON:146:1,2014-10-12T08:30:00Z,28.1324,-97.0345,0.0,5.6,14.0,7.5,'1111122,1111122,1111122' 
TCOON,ioos:station:TCOON:146:1,2014-10-12T09:30:00Z,28.1324,-97.0345,0.0,5.6,21.0,7.4,'1111122,1111122,1111122' 